Year,Month,Day,Hour,Minute,Value (Times are PST for temperature in C)
2018,04,12,07,59,7.10
2018,04,12,08,00,7.10
2018,04,12,08,01,7.10
2018,04,12,08,02,7.10
2018,04,12,08,03,7.10
2018,04,12,08,04,7.10
2018,04,12,08,05,7.10
2018,04,12,08,06,7.10
2018,04,12,08,07,7.20
2018,04,12,08,08,7.20
2018,04,12,08,09,7.20
2018,04,12,08,10,7.20
2018,04,12,08,11,7.20
2018,04,12,08,12,7.20
2018,04,12,08,13,7.20
2018,04,12,08,14,7.20
2018,04,12,08,15,7.20
2018,04,12,08,16,7.20
2018,04,12,08,17,7.20
2018,04,12,08,18,7.20
2018,04,12,08,19,7.20
2018,04,12,08,20,7.20
2018,04,12,08,21,7.20
2018,04,12,08,22,7.20
2018,04,12,08,23,7.20
2018,04,12,08,24,7.20
2018,04,12,08,25,7.20
2018,04,12,08,26,7.20
2018,04,12,08,27,7.30
2018,04,12,08,28,7.30
2018,04,12,08,29,7.30
2018,04,12,08,30,7.30
2018,04,12,08,31,7.30
2018,04,12,08,32,7.30
2018,04,12,08,33,7.30
2018,04,12,08,34,7.30
2018,04,12,08,35,7.30
2018,04,12,08,36,7.30
2018,04,12,08,37,7.40
2018,04,12,08,38,7.40
2018,04,12,08,39,7.40
2018,04,12,08,40,7.50
2018,04,12,08,41,7.50
2018,04,12,08,42,7.50
2018,04,12,08,43,7.60
2018,04,12,08,44,7.60
2018,04,12,08,45,7.60
2018,04,12,08,46,7.60
2018,04,12,08,47,7.60
2018,04,12,08,48,7.70
2018,04,12,08,49,7.70
2018,04,12,08,50,7.80
2018,04,12,08,51,7.80
2018,04,12,08,52,7.80
2018,04,12,08,53,7.80
2018,04,12,08,54,7.90
2018,04,12,08,55,7.90
2018,04,12,08,56,7.90
2018,04,12,08,57,7.90
2018,04,12,08,58,7.90
2018,04,12,08,59,7.90
2018,04,12,09,00,7.90
2018,04,12,09,01,7.90
2018,04,12,09,02,7.90
2018,04,12,09,03,7.80
2018,04,12,09,04,7.80
2018,04,12,09,05,7.70
2018,04,12,09,06,7.70
2018,04,12,09,07,7.70
2018,04,12,09,08,7.70
2018,04,12,09,09,7.60
2018,04,12,09,10,7.50
2018,04,12,09,11,7.50
2018,04,12,09,12,7.40
2018,04,12,09,13,7.30
2018,04,12,09,14,7.30
2018,04,12,09,15,7.30
2018,04,12,09,16,7.40
2018,04,12,09,17,7.40
2018,04,12,09,18,7.40
2018,04,12,09,19,7.50
2018,04,12,09,20,7.50
2018,04,12,09,21,7.50
2018,04,12,09,22,7.50
2018,04,12,09,23,7.40
2018,04,12,09,24,7.40
2018,04,12,09,25,7.40
2018,04,12,09,26,7.40
2018,04,12,09,27,7.30
2018,04,12,09,28,7.30
2018,04,12,09,29,7.30
2018,04,12,09,30,7.30
2018,04,12,09,31,7.30
2018,04,12,09,32,7.30
2018,04,12,09,33,7.30
2018,04,12,09,34,7.30
2018,04,12,09,35,7.20
2018,04,12,09,36,7.20
2018,04,12,09,37,7.20
2018,04,12,09,38,7.30
2018,04,12,09,39,7.30
2018,04,12,09,40,7.40
2018,04,12,09,41,7.40
2018,04,12,09,42,7.50
2018,04,12,09,43,7.50
2018,04,12,09,44,7.50
2018,04,12,09,45,7.40
2018,04,12,09,46,7.40
2018,04,12,09,47,7.50
2018,04,12,09,48,7.50
2018,04,12,09,49,7.50
2018,04,12,09,50,7.50
2018,04,12,09,51,7.50
2018,04,12,09,52,7.50
2018,04,12,09,53,7.50
2018,04,12,09,54,7.60
2018,04,12,09,55,7.60
2018,04,12,09,56,7.60
2018,04,12,09,57,7.70
2018,04,12,09,58,7.70
2018,04,12,09,59,7.70
2018,04,12,10,00,7.80
2018,04,12,10,01,7.80
2018,04,12,10,02,7.80
2018,04,12,10,03,7.80
2018,04,12,10,04,7.80
2018,04,12,10,05,7.80
2018,04,12,10,06,7.80
2018,04,12,10,07,7.70
2018,04,12,10,08,7.70
2018,04,12,10,09,7.70
2018,04,12,10,10,7.70
2018,04,12,10,11,7.70
2018,04,12,10,12,7.70
2018,04,12,10,13,7.60
2018,04,12,10,14,7.60
2018,04,12,10,15,7.60
2018,04,12,10,16,7.70
2018,04,12,10,17,7.80
2018,04,12,10,18,7.80
2018,04,12,10,19,7.90
2018,04,12,10,20,7.90
2018,04,12,10,21,7.80
2018,04,12,10,22,7.80
2018,04,12,10,23,7.80
2018,04,12,10,24,7.80
2018,04,12,10,25,7.70
2018,04,12,10,26,7.80
2018,04,12,10,27,7.80
2018,04,12,10,28,7.80
2018,04,12,10,29,7.80
2018,04,12,10,30,7.80
2018,04,12,10,31,7.80
2018,04,12,10,32,7.80
2018,04,12,10,33,7.80
2018,04,12,10,34,7.80
2018,04,12,10,35,7.80
2018,04,12,10,36,7.80
2018,04,12,10,37,7.80
2018,04,12,10,38,7.80
2018,04,12,10,39,7.80
2018,04,12,10,40,7.90
2018,04,12,10,41,8.00
2018,04,12,10,42,8.00
2018,04,12,10,43,8.00
2018,04,12,10,44,8.10
2018,04,12,10,45,8.10
2018,04,12,10,46,8.10
2018,04,12,10,47,8.20
2018,04,12,10,48,8.20
2018,04,12,10,49,8.20
2018,04,12,10,50,8.20
2018,04,12,10,51,8.10
2018,04,12,10,52,8.00
2018,04,12,10,53,8.00
2018,04,12,10,54,8.00
2018,04,12,10,55,8.00
2018,04,12,10,56,8.00
2018,04,12,10,57,8.00
2018,04,12,10,58,8.00
2018,04,12,10,59,8.10
2018,04,12,11,00,8.10
2018,04,12,11,01,8.00
2018,04,12,11,02,7.90
2018,04,12,11,03,7.80
2018,04,12,11,04,7.80
2018,04,12,11,05,7.80
2018,04,12,11,06,7.80
2018,04,12,11,07,7.80
2018,04,12,11,08,7.80
2018,04,12,11,09,7.80
2018,04,12,11,10,7.80
2018,04,12,11,11,7.70
2018,04,12,11,12,7.70
2018,04,12,11,13,7.60
2018,04,12,11,14,7.60
2018,04,12,11,15,7.70
2018,04,12,11,16,7.70
2018,04,12,11,17,7.80
2018,04,12,11,18,7.80
2018,04,12,11,19,7.80
2018,04,12,11,20,7.80
2018,04,12,11,21,7.80
2018,04,12,11,22,7.90
2018,04,12,11,23,7.90
2018,04,12,11,24,8.00
2018,04,12,11,25,8.00
2018,04,12,11,26,8.10
2018,04,12,11,27,8.10
2018,04,12,11,28,8.10
2018,04,12,11,29,8.10
2018,04,12,11,30,8.00
2018,04,12,11,31,8.00
2018,04,12,11,32,8.10
2018,04,12,11,33,8.00
2018,04,12,11,34,8.00
2018,04,12,11,35,8.10
2018,04,12,11,36,8.00
2018,04,12,11,37,8.00
2018,04,12,11,38,8.00
2018,04,12,11,39,8.00
2018,04,12,11,40,8.00
2018,04,12,11,41,8.10
2018,04,12,11,42,8.10
2018,04,12,11,43,8.10
2018,04,12,11,44,8.10
2018,04,12,11,45,8.10
2018,04,12,11,46,8.10
2018,04,12,11,47,8.10
2018,04,12,11,48,8.10
2018,04,12,11,49,8.10
2018,04,12,11,50,8.10
2018,04,12,11,51,8.10
2018,04,12,11,52,8.20
2018,04,12,11,53,8.20
2018,04,12,11,54,8.20
2018,04,12,11,55,8.20
2018,04,12,11,56,8.20
2018,04,12,11,57,8.30
2018,04,12,11,58,8.30
2018,04,12,11,59,8.30
2018,04,12,12,00,8.30
2018,04,12,12,01,8.30
2018,04,12,12,02,8.30
2018,04,12,12,03,8.30
2018,04,12,12,04,8.30
2018,04,12,12,05,8.20
2018,04,12,12,06,8.20
2018,04,12,12,07,8.10
2018,04,12,12,08,8.10
2018,04,12,12,09,8.20
2018,04,12,12,10,8.10
2018,04,12,12,11,8.00
2018,04,12,12,12,8.00
2018,04,12,12,13,8.10
2018,04,12,12,14,8.10
2018,04,12,12,15,8.20
2018,04,12,12,16,8.20
2018,04,12,12,17,8.20
2018,04,12,12,18,8.10
2018,04,12,12,19,8.10
2018,04,12,12,20,8.10
2018,04,12,12,21,8.10
2018,04,12,12,22,8.10
2018,04,12,12,23,8.10
2018,04,12,12,24,8.10
2018,04,12,12,25,8.20
2018,04,12,12,26,8.20
2018,04,12,12,27,8.20
2018,04,12,12,28,8.20
2018,04,12,12,29,8.20
2018,04,12,12,30,8.20
2018,04,12,12,31,8.20
2018,04,12,12,32,8.20
2018,04,12,12,33,8.20
2018,04,12,12,34,8.20
2018,04,12,12,35,8.20
2018,04,12,12,36,8.20
2018,04,12,12,37,8.30
2018,04,12,12,38,8.40
2018,04,12,12,39,8.50
2018,04,12,12,40,8.60
2018,04,12,12,41,8.70
2018,04,12,12,42,8.90
2018,04,12,12,43,9.00
2018,04,12,12,44,8.90
2018,04,12,12,45,8.80
2018,04,12,12,46,8.70
2018,04,12,12,47,8.60
2018,04,12,12,48,8.50
2018,04,12,12,49,8.50
2018,04,12,12,50,8.50
2018,04,12,12,51,8.50
2018,04,12,12,52,8.60
2018,04,12,12,53,8.70
2018,04,12,12,54,8.80
2018,04,12,12,55,8.90
2018,04,12,12,56,9.10
2018,04,12,12,57,9.20
2018,04,12,12,58,9.30
2018,04,12,12,59,9.40
2018,04,12,13,00,9.50
2018,04,12,13,01,9.50
2018,04,12,13,02,9.50
2018,04,12,13,03,9.60
2018,04,12,13,04,9.80
2018,04,12,13,05,10.00
2018,04,12,13,06,10.10
2018,04,12,13,07,10.10
2018,04,12,13,08,10.20
2018,04,12,13,09,10.20
2018,04,12,13,10,10.20
2018,04,12,13,11,10.20
2018,04,12,13,12,10.20
2018,04,12,13,13,10.30
2018,04,12,13,14,10.40
2018,04,12,13,15,10.50
2018,04,12,13,16,10.60
2018,04,12,13,17,10.70
2018,04,12,13,18,10.80
2018,04,12,13,19,10.80
2018,04,12,13,20,10.80
2018,04,12,13,21,10.70
2018,04,12,13,22,10.80
2018,04,12,13,23,10.90
2018,04,12,13,24,10.90
2018,04,12,13,25,10.90
2018,04,12,13,26,10.90
2018,04,12,13,27,10.90
2018,04,12,13,28,10.90
2018,04,12,13,29,10.90
2018,04,12,13,30,10.90
2018,04,12,13,31,10.90
2018,04,12,13,32,10.90
2018,04,12,13,33,11.00
2018,04,12,13,34,11.00
2018,04,12,13,35,10.90
2018,04,12,13,36,10.70
2018,04,12,13,37,10.60
2018,04,12,13,38,10.60
2018,04,12,13,39,10.60
2018,04,12,13,40,10.60
2018,04,12,13,41,10.60
2018,04,12,13,42,10.80
2018,04,12,13,43,10.80
2018,04,12,13,44,11.00
2018,04,12,13,45,11.10
2018,04,12,13,46,11.10
2018,04,12,13,47,11.20
2018,04,12,13,48,11.20
2018,04,12,13,49,11.20
2018,04,12,13,50,11.30
2018,04,12,13,51,11.40
2018,04,12,13,52,11.40
2018,04,12,13,53,11.40
2018,04,12,13,54,11.40
2018,04,12,13,55,11.40
2018,04,12,13,56,11.40
2018,04,12,13,57,11.30
2018,04,12,13,58,11.30
2018,04,12,13,59,11.30
2018,04,12,14,00,11.30
2018,04,12,14,01,11.30
2018,04,12,14,02,11.40
2018,04,12,14,03,11.40
2018,04,12,14,04,11.40
2018,04,12,14,05,11.40
2018,04,12,14,06,11.40
2018,04,12,14,07,11.40
2018,04,12,14,08,11.40
2018,04,12,14,09,11.50
2018,04,12,14,10,11.60
2018,04,12,14,11,11.60
2018,04,12,14,12,11.70
2018,04,12,14,13,11.80
2018,04,12,14,14,11.80
2018,04,12,14,15,11.80
2018,04,12,14,16,11.90
2018,04,12,14,17,12.00
2018,04,12,14,18,12.20
2018,04,12,14,19,12.30
2018,04,12,14,20,12.40
2018,04,12,14,21,12.40
2018,04,12,14,22,12.40
2018,04,12,14,23,12.40
2018,04,12,14,24,12.50
2018,04,12,14,25,12.40
2018,04,12,14,26,12.30
2018,04,12,14,27,12.30
2018,04,12,14,28,12.30
2018,04,12,14,29,12.30
2018,04,12,14,30,12.30
2018,04,12,14,31,12.20
2018,04,12,14,32,12.20
2018,04,12,14,33,12.20
2018,04,12,14,34,12.10
2018,04,12,14,35,12.00
2018,04,12,14,36,11.90
2018,04,12,14,37,11.90
2018,04,12,14,38,11.80
2018,04,12,14,39,11.80
2018,04,12,14,40,11.80
2018,04,12,14,41,11.80
2018,04,12,14,42,11.70
2018,04,12,14,43,11.60
2018,04,12,14,44,11.60
2018,04,12,14,45,11.50
2018,04,12,14,46,11.40
2018,04,12,14,47,11.40
2018,04,12,14,48,11.40
2018,04,12,14,49,11.40
2018,04,12,14,50,11.40
2018,04,12,14,51,11.40
2018,04,12,14,52,11.40
2018,04,12,14,53,11.40
2018,04,12,14,54,11.20
2018,04,12,14,55,11.10
2018,04,12,14,56,11.20
2018,04,12,14,57,11.30
2018,04,12,14,58,11.30
2018,04,12,14,59,11.30
2018,04,12,15,00,11.40
2018,04,12,15,01,11.50
2018,04,12,15,02,11.60
2018,04,12,15,03,11.60
2018,04,12,15,04,11.60
2018,04,12,15,05,11.60
2018,04,12,15,06,11.60
2018,04,12,15,07,11.70
2018,04,12,15,08,11.70
2018,04,12,15,09,11.80
2018,04,12,15,10,11.80
2018,04,12,15,11,11.80
2018,04,12,15,12,11.80
2018,04,12,15,13,11.70
2018,04,12,15,14,11.50
2018,04,12,15,15,11.40
2018,04,12,15,16,11.40
2018,04,12,15,17,11.40
2018,04,12,15,18,11.40
2018,04,12,15,19,11.40
2018,04,12,15,20,11.40
2018,04,12,15,21,11.40
2018,04,12,15,22,11.30
2018,04,12,15,23,11.10
2018,04,12,15,24,11.10
2018,04,12,15,25,11.00
2018,04,12,15,26,10.90
2018,04,12,15,27,10.90
2018,04,12,15,28,11.00
2018,04,12,15,29,11.10
2018,04,12,15,30,11.10
2018,04,12,15,31,11.10
2018,04,12,15,32,11.10
2018,04,12,15,33,11.10
2018,04,12,15,34,11.10
2018,04,12,15,35,11.10
2018,04,12,15,36,11.10
2018,04,12,15,37,11.10
2018,04,12,15,38,11.20
2018,04,12,15,39,11.30
2018,04,12,15,40,11.40
2018,04,12,15,41,11.50
2018,04,12,15,42,11.60
2018,04,12,15,43,11.60
2018,04,12,15,44,11.60
2018,04,12,15,45,11.40
2018,04,12,15,46,11.20
2018,04,12,15,47,11.20
2018,04,12,15,48,11.20
2018,04,12,15,49,11.30
2018,04,12,15,50,11.40
2018,04,12,15,51,11.50
2018,04,12,15,52,11.60
2018,04,12,15,53,11.60
2018,04,12,15,54,11.60
2018,04,12,15,55,11.70
2018,04,12,15,56,11.70
2018,04,12,15,57,11.70
2018,04,12,15,58,11.80
2018,04,12,15,59,11.80
2018,04,12,16,00,11.80
2018,04,12,16,01,11.80
2018,04,12,16,02,11.80
2018,04,12,16,03,11.80
2018,04,12,16,04,11.80
2018,04,12,16,05,11.80
2018,04,12,16,06,11.80
2018,04,12,16,07,11.90
2018,04,12,16,08,11.90
2018,04,12,16,09,11.90
2018,04,12,16,10,11.90
2018,04,12,16,11,11.90
2018,04,12,16,12,11.80
2018,04,12,16,13,11.80
2018,04,12,16,14,11.80
2018,04,12,16,15,11.70
2018,04,12,16,16,11.70
2018,04,12,16,17,11.60
2018,04,12,16,18,11.60
2018,04,12,16,19,11.50
2018,04,12,16,20,11.40
2018,04,12,16,21,11.40
2018,04,12,16,22,11.40
2018,04,12,16,23,11.40
2018,04,12,16,24,11.40
2018,04,12,16,25,11.40
2018,04,12,16,26,11.40
2018,04,12,16,27,11.40
2018,04,12,16,28,11.40
2018,04,12,16,29,11.40
2018,04,12,16,30,11.40
2018,04,12,16,31,11.60
2018,04,12,16,32,11.60
2018,04,12,16,33,11.50
2018,04,12,16,34,11.40
2018,04,12,16,35,11.40
2018,04,12,16,36,11.40
2018,04,12,16,37,11.40
2018,04,12,16,38,11.50
2018,04,12,16,39,11.60
2018,04,12,16,40,11.60
2018,04,12,16,41,11.70
2018,04,12,16,42,11.70
2018,04,12,16,43,11.70
2018,04,12,16,44,11.70
2018,04,12,16,45,11.70
2018,04,12,16,46,11.60
2018,04,12,16,47,11.60
2018,04,12,16,48,11.60
2018,04,12,16,49,11.60
2018,04,12,16,50,11.50
2018,04,12,16,51,11.40
2018,04,12,16,52,11.40
2018,04,12,16,53,11.40
2018,04,12,16,54,11.50
2018,04,12,16,55,11.60
2018,04,12,16,56,11.60
2018,04,12,16,57,11.60
2018,04,12,16,58,11.60
2018,04,12,16,59,11.60
2018,04,12,17,00,11.60
2018,04,12,17,01,11.70
2018,04,12,17,02,11.70
2018,04,12,17,03,11.70
2018,04,12,17,04,11.70
2018,04,12,17,05,11.70
2018,04,12,17,06,11.60
2018,04,12,17,07,11.50
2018,04,12,17,08,11.40
2018,04,12,17,09,11.40
2018,04,12,17,10,11.40
2018,04,12,17,11,11.40
2018,04,12,17,12,11.60
2018,04,12,17,13,11.60
2018,04,12,17,14,11.60
2018,04,12,17,15,11.60
2018,04,12,17,16,11.60
2018,04,12,17,17,11.60
2018,04,12,17,18,11.60
2018,04,12,17,19,11.60
2018,04,12,17,20,11.60
2018,04,12,17,21,11.60
2018,04,12,17,22,11.60
2018,04,12,17,23,11.60
2018,04,12,17,24,11.60
2018,04,12,17,25,11.60
2018,04,12,17,26,11.70
2018,04,12,17,27,11.70
2018,04,12,17,28,11.70
2018,04,12,17,29,11.60
2018,04,12,17,30,11.60
2018,04,12,17,31,11.60
2018,04,12,17,32,11.60
2018,04,12,17,33,11.60
2018,04,12,17,34,11.60
2018,04,12,17,35,11.60
2018,04,12,17,36,11.60
2018,04,12,17,37,11.60
2018,04,12,17,38,11.60
2018,04,12,17,39,11.60
2018,04,12,17,40,11.60
2018,04,12,17,41,11.50
2018,04,12,17,42,11.40
2018,04,12,17,43,11.40
2018,04,12,17,44,11.40
2018,04,12,17,45,11.40
2018,04,12,17,46,11.30
2018,04,12,17,47,11.30
2018,04,12,17,48,11.30
2018,04,12,17,49,11.30
2018,04,12,17,50,11.20
2018,04,12,17,51,11.20
2018,04,12,17,52,11.20
2018,04,12,17,53,11.20
2018,04,12,17,54,11.20
2018,04,12,17,55,11.20
2018,04,12,17,56,11.20
2018,04,12,17,57,11.20
2018,04,12,17,58,11.20
2018,04,12,17,59,11.30
2018,04,12,18,00,11.30
2018,04,12,18,01,11.30
2018,04,12,18,02,11.30
2018,04,12,18,03,11.30
2018,04,12,18,04,11.30
2018,04,12,18,05,11.30
2018,04,12,18,06,11.30
2018,04,12,18,07,11.30
2018,04,12,18,08,11.30
2018,04,12,18,09,11.30
2018,04,12,18,10,11.30
2018,04,12,18,11,11.30
2018,04,12,18,12,11.30
2018,04,12,18,13,11.30
2018,04,12,18,14,11.30
2018,04,12,18,15,11.30
2018,04,12,18,16,11.40
2018,04,12,18,17,11.30
2018,04,12,18,18,11.30
2018,04,12,18,19,11.30
2018,04,12,18,20,11.30
2018,04,12,18,21,11.30
2018,04,12,18,22,11.20
2018,04,12,18,23,11.20
2018,04,12,18,24,11.20
2018,04,12,18,25,11.20
2018,04,12,18,26,11.20
2018,04,12,18,27,11.20
2018,04,12,18,28,11.20
2018,04,12,18,29,11.30
2018,04,12,18,30,11.30
2018,04,12,18,31,11.30
2018,04,12,18,32,11.20
2018,04,12,18,33,11.20
2018,04,12,18,34,11.20
2018,04,12,18,35,11.20
2018,04,12,18,36,11.10
2018,04,12,18,37,11.10
2018,04,12,18,38,11.10
2018,04,12,18,39,11.10
2018,04,12,18,40,11.10
2018,04,12,18,41,11.00
2018,04,12,18,42,10.90
2018,04,12,18,43,10.90
2018,04,12,18,44,10.90
2018,04,12,18,45,10.80
2018,04,12,18,46,10.70
2018,04,12,18,47,10.60
2018,04,12,18,48,10.60
2018,04,12,18,49,10.60
2018,04,12,18,50,10.60
2018,04,12,18,51,10.60
2018,04,12,18,52,10.60
2018,04,12,18,53,10.60
2018,04,12,18,54,10.60
2018,04,12,18,55,10.60
2018,04,12,18,56,10.50
2018,04,12,18,57,10.40
2018,04,12,18,58,10.40
2018,04,12,18,59,10.40
2018,04,12,19,00,10.40
2018,04,12,19,01,10.40
2018,04,12,19,02,10.30
2018,04,12,19,03,10.30
2018,04,12,19,04,10.30
2018,04,12,19,05,10.30
2018,04,12,19,06,10.30
2018,04,12,19,07,10.20
2018,04,12,19,08,10.20
2018,04,12,19,09,10.20
2018,04,12,19,10,10.20
2018,04,12,19,11,10.20
2018,04,12,19,12,10.10
2018,04,12,19,13,10.10
2018,04,12,19,14,10.10
2018,04,12,19,15,10.10
2018,04,12,19,16,10.10
2018,04,12,19,17,10.10
2018,04,12,19,18,10.10
2018,04,12,19,19,10.10
2018,04,12,19,20,10.10
2018,04,12,19,21,10.10
2018,04,12,19,22,10.10
2018,04,12,19,23,10.00
2018,04,12,19,24,9.90
2018,04,12,19,25,9.90
2018,04,12,19,26,9.90
2018,04,12,19,27,9.90
2018,04,12,19,28,9.80
2018,04,12,19,29,9.80
2018,04,12,19,30,9.80
2018,04,12,19,31,9.80
2018,04,12,19,32,9.80
2018,04,12,19,33,9.80
2018,04,12,19,34,9.70
2018,04,12,19,35,9.70
2018,04,12,19,36,9.70
2018,04,12,19,37,9.70
2018,04,12,19,38,9.70
2018,04,12,19,39,9.70
2018,04,12,19,40,9.70
2018,04,12,19,41,9.70
2018,04,12,19,42,9.70
2018,04,12,19,43,9.70
2018,04,12,19,44,9.70
2018,04,12,19,45,9.70
2018,04,12,19,46,9.70
2018,04,12,19,47,9.70
2018,04,12,19,48,9.70
2018,04,12,19,49,9.70
